Location: Gombori
(14.9797°N, 2.9419°W)
Time: 00:22:12
(UTC+00:00)

Meteor 2-13 Rocket - Pass Details

Date: 29 July 2021
Orbit: 936 x 957 km, 82.5° (Epoch: 20 September)

Event Time Altitude Azimuth Distance (km) Brightness Sun altitude
Rises 19:37:09 0° 177° (S) 3,621 7.2 -13.1°
Reaches altitude 10° 19:39:40 10° 175° (S) 2,674 6.5 -13.7°
Maximum altitude 19:45:44 67° 93° (E) 1,022 4.4 -15.0°
Drops below altitude 10° 19:51:46 10° 12° (NNE) 2,663 7.0 -16.3°
Sets 19:54:15 0° 9° (N) 3,605 7.7 -16.9°
